www.pogodaiklimat.ru

Погода и климат >> Архив погоды >> Румыния >> Darabani


ПОГОДА в Darabani

  • Прогноз погоды в Darabani
  • Монитор погоды в Darabani
  • Климат города

АРХИВ ПОГОДЫ в Darabani

Время (UTC), дата Ветер
(напр.,м/с)
 
Видим.   Явления Облачность Т
(С)
Тd
(С)
f
(%)
Тe
(С)
Тes
(С)
Комфортность P
(гПа)
Po
(гПа)
Тmin
(С)
Tmax
(С)
R
(мм)
R24
(мм)
S
(см)
18 11.12 С 1 10 км ясно -0.1 -0.8 95 -2 -2 1016.2 983.7 -1.5 +3.1 4
21 11.12 СЗ 3-3
{4}
н/о н/о -1.2 -1.2 100 -6 -6 1016.7 984.0
00 12.12 СЗ 4-4
{4}
н/о н/о -2.2 -2.2 100 -8 -8 1017.0 984.1
03 12.12 СЗ 4-4
{5}
н/о н/о -2.9 -2.9 100 -9 -9 1017.5 984.5
06 12.12 СЗ 3 4000 м дымка 10/5 600 м
[Sc Ac As]
-2.3 -2.3 100 -8 -8 1017.7 984.8 -4.0 +0.2 4
09 12.12 СЗ 3-4
{5}
4000 м дымка 9/4 600 м
[Sc Ac As]
-1.5 -1.5 100 -7 -6 1018.1 985.3
12 12.12 СЗ 3-5
{5}
4000 м дымка 6/3 600 м
[Cu med, cong Ac trans]
+2.2 +0.4 88 -2 -1 1017.1 984.7 4
15 12.12 З 3-5
{5}
4000 м дымка 3/0
[Ac lent]
+0.6 -0.3 94 -4 -4 1017.7 985.2
18 12.12 СЗ 3 10 км 9/0
[Ac As]
-0.6 -0.6 100 -6 -6 1017.9 985.3 -3.2 +2.9 4
21 12.12 З 3-6
{6}
н/о н/о -0.9 -0.9 100 -6 -6 1017.9 985.2
00 13.12 З 4-7
{9}
н/о н/о -0.8 -0.8 100 -7 -7 1017.3 984.7
03 13.12 З 4-8
{10}
н/о н/о -0.8 -0.8 100 -7 -7 1017.0 984.3
06 13.12 З 5 2000 м слабый снег 10/6 600 м
[Sc As op]
-0.8 -0.8 100 -7 -7 1016.5 983.8 -1.0 -0.6 1 6
09 13.12 СЗ 5-9
{10}
2000 м слабый снег 10/6 600 м
[Sc As op]
-0.5 -0.5 100 -7 -7 1017.1 984.4 0.6
12 13.12 СЗ 4-8
{10}
2000 м слабый снег 10/8 600 м
[Sc Ac As]
-0.1 -0.1 100 -6 -6 1016.8 984.3 0.8 8
15 13.12 СЗ 4-8
{8}
2000 м слабый снег 10/6 600 м
[Sc As op]
-0.4 -0.4 100 -6 -6 1017.7 985.1 0.4
18 13.12 СЗ 4 4000 м в посл. час снег 10/6 600 м
[Sc Ac As]
-0.5 -0.5 100 -6 -6 1018.4 985.8 -0.8 -0.1 0.4 9
21 13.12 СЗ 4-6
{6}
н/о н/о -1.1 -1.1 100 -7 -7 1019.8 987.0
00 14.12 СЗ 4-7
{7}
н/о н/о -1.2 -1.2 100 -7 -7 1020.6 987.8
03 14.12 СЗ 4-6
{7}
н/о н/о -1.7 -1.7 100 -8 -8 1021.5 988.5
06 14.12 СЗ 3 4000 м слабый снег 10/6 600 м
[Sc Ac As]
-1.6 -1.6 100 -7 -7 1022.7 989.7 -2.0 -0.5 0.5 13
09 14.12 СЗ 3-6
{6}
4000 м слабый снег 10/5 600 м
[Sc Ac As]
-1.3 -1.3 100 -7 -6 1024.1 991.1 0.1
12 14.12 З 2-4
{5}
4000 м слабый снег 10/6 600 м
[Sc Ac As]
-1.2 -1.2 100 -5 -5 1024.5 991.6 0.1 14
15 14.12 З 2-4
{5}
4000 м дымка {снег} 10/6 600 м
[Sc Ac As]
-1.3 -1.3 100 -5 -5 1026.3 993.2 0.0
18 14.12 СЗ 2 4000 м дымка {снег} 10/6 600 м
[Sc Ac As]
-1.6 -1.6 100 -6 -6 1027.4 994.2 -1.7 -1.0 15
21 14.12 С 3-4
{4}
н/о н/о -2.6 -2.6 100 -8 -8 1028.0 994.7
00 15.12 С 2-2
{3}
н/о н/о -3.1 -3.1 100 -7 -7 1028.2 994.9
03 15.12 СВ 2-2
{2}
н/о н/о -2.4 -4.3 87 -6 -6 1028.3 995.1
06 15.12 В 3 4000 м дымка 10/4 600 м
[Sc Ac As]
-2.6 -3.0 97 -8 -8 1028.7 995.4 -3.1 -1.6 15
09 15.12 В 4-5
{6}
4000 м дымка 10/6 600 м
[Sc Ac As]
-2.1 -2.6 96 -8 -8 1029.8 996.5
12 15.12 ЮВ 3-5
{5}
4000 м дымка 10/6 600 м
[Sc Ac As]
-2.0 -2.3 98 -7 -7 1028.7 995.5 15
15 15.12 В 3-6
{7}
4000 м дымка 10/8 600 м
[Sc Ac As]
-2.5 -2.5 100 -8 -8 1028.8 995.5
18 15.12 В 4 4000 м дымка 10/6 600 м
[Sc Ac As]
-2.1 -2.1 100 -8 -8 1028.4 995.2 -2.6 -1.3 15
21 15.12 В 4-8
{8}
н/о н/о -2.5 -2.5 100 -9 -9 1027.5 994.3
00 16.12 В 6-10
{11}
н/о н/о -3.2 -3.2 100 -11 -11 1026.9 993.6
03 16.12 В 5-11
{11}
н/о н/о -3.6 -3.6 100 -11 -11 1026.6 993.3
06 16.12 В 6 4000 м слабый снег 10/6 600 м
[Sc Ac As]
-3.3 -3.3 100 -11 -11 1026.0 992.7 -3.6 -2.1 1 15
09 16.12 ЮВ 6-10
{11}
2000 м слабый снег 10/6 600 м
[Sc As op]
-2.5 -2.5 100 -10 -10 1026.5 993.3 1
12 16.12 ЮВ 7-11
{12}
4000 м в посл. час снег 10/6 600 м
[Sc As op]
-2.2 -2.2 100 -10 -10 1025.3 992.2 0.8 15
15 16.12 ЮВ 6-11
{12}
4000 м позёмок {снег, метель} 10/6 600 м
[Sc Ac As]
-2.3 -2.3 100 -10 -10 1025.8 992.6 0.0
18 16.12 ЮВ 6 4000 м слабый снег {метель} 10/8 300 м
[Frnb As op]
-2.5 -2.5 100 -10 -10 1026.4 993.2 -3.3 -2.1 5 16
21 16.12 ЮВ 7-11
{12}
н/о н/о -2.8 -2.8 100 -11 -11 1026.4 993.2 0.5
00 17.12 ЮВ 5-9
{10}
н/о н/о -3.0 -3.0 100 -10 -10 1025.9 992.7
03 17.12 ЮВ 5-10
{11}
н/о н/о -3.4 -3.4 100 -11 -11 1025.2 991.9
06 17.12 ЮВ 4 4000 м дымка 10/6 600 м
[Sc Ac As]
-3.4 -3.4 100 -10 -10 1025.5 992.2 -3.5 -2.4 16
09 17.12 ЮВ 4-8
{8}
4000 м дымка 10/8 600 м
[Sc Ac As]
-3.0 -3.0 100 -9 -9 1025.8 992.5
12 17.12 ЮВ 4-7
{9}
4000 м дымка 10/6 600 м
[Sc Ac As]
-3.6 -3.6 100 -10 -10 1025.0 991.7 16
15 17.12 ЮВ 4-7
{8}
4000 м дымка 10/8 600 м
[Sc Ac As]
-3.7 -3.7 100 -10 -10 1025.6 992.3
18 17.12 В 3 4000 м дымка 10/8 600 м
[Sc Ac As]
-4.4 -4.4 100 -10 -10 1027.4 993.9 -4.4 -3.0 16
21 17.12 В 2-3
{4}
н/о н/о -4.4 -4.4 100 -9 -9 1028.6 995.1
00 18.12 СВ 2-3
{4}
н/о н/о -4.4 -4.4 100 -9 -9 1029.1 995.5
03 18.12 СВ 2-2
{4}
н/о н/о -4.6 -4.6 100 -9 -9 1029.5 996.0
06 18.12 С 1 4000 м слабый снег 10/6 600 м
[Sc Ac As]
-4.6 -4.6 100 -7 -7 1030.5 997.0 -4.6 -4.4 1 17
09 18.12 штиль 0
{1}
1000 м слабый снег 10/6 600 м
[Sc As op]
-3.6 -3.6 100 -5 -5 1031.7 998.2 3
12 18.12 СЗ 1-2
{2}
1000 м слабый снег 10/6 600 м
[Sc As op]
-3.3 -3.3 100 -6 -6 1030.9 997.5 1 23
15 18.12 СЗ 2-2
{2}
1000 м в посл. час снег 10/6 600 м
[Sc As op]
-4.1 -4.1 100 -9 -9 1031.4 997.8 0.8

 

Местоположение метеостанции Darabani (Румыния): широта 48.20 долгота 26.58 высота над уровнем моря 260 м.

В архиве по умолчанию представлена погода в Darabani за последнюю неделю. Архивные данные за месяц целиком и за предыдущие месяцы, начиная с января 2011 года, Вы можете получить, выбрав интересующий диапазон дат из раскрывающегося списка и нажав кнопку "Ввод!".


*Определитесь, кто Вы:
робот инопланетянин человек

Внимание! Время в таблицах - всемирное. Для получения местного времени необходимо прибавить поправку, которая в Darabani равна 2 ч.

Смотрите также архив погоды в соседних городах и на ближайших метеорологических станциях:

Погода в Бричанах (Молдова) (41 км)
Погода в Каменец-Подольском (Хмельницкая область, Украина) (50 км)
Погода в Botosani (Румыния) (53 км)
Погода в Черновцах (Черновицкая область, Украина) (54 км)
Погода в Stanca Stefanesti (Румыния) (63 км)
Погода в Radauti (Румыния) (65 км)
Погода в Suceava (Румыния) (68 км)
Погода в Новоднестровске (Черновицкая область, Украина) (76 км)
Погода в Новой Ушице (Хмельницкая область, Украина) (88 км)
Погода в Могилев-Подольском (Винницкая область, Украина) (93 км)

Пояснения к столбцам:

Ветер - указаны скорость ветра в м/с - средняя за 10 мин, порывы в срок и между сроками (в фигурных скобках) и направление, откуда дует ветер: С - северный, СВ - северо-восточный, В - восточный, ЮВ - юго-восточный, Ю - южный, ЮЗ - юго-западный, З - западный, СЗ - северо-западный.
Видимость - горизонтальная дальность видимости в метрах или километрах. При видимости от 1 до 10 км при отсутствии осадков обычно наблюдается дымка, при ухудшении видимости до 1 км и менее - туман. В сухую погоду видимость может ухудшаться дымом, пылью или мглою.
Явления - указаны атмосферные явления, наблюдавшиеся в срок или в последний час перед сроком; фигурными скобками обозначены явления, наблюдавшиеся между сроками (за 1-3 часа до срока); квадратными скобками обозначены град или гололедные отложения с указанием их диаметра в мм.
Облачность - указаны через наклонную черту общая и нижняя облачность в баллах и высота нижней границы облаков в метрах; квадратными скобками обозначены формы облаков: Ci - перистые, Cs - перисто-слоистые, Cc - перисто-кучевые, Ac - высококучевые, As - высокослоистые, Sc - слоисто-кучевые, Ns - слоисто-дождевые, Cu - кучевые, Cb - кучево-дождевые. Подробнее классификацию облаков см. в Атласе облаков (PDF).
T - Температура воздуха - температура, измеренная на высоте 2 м над землей.
Td - Температура точки росы - температура, при понижении до которой содержащийся в воздухе водяной пар достигнет насыщения.
f - Относительная влажность воздуха - влажноcть воздуха, измеренная на высоте 2 м над землей.
Te - Эффективная температура - температура, которую ощущает одетый по сезону человек в тени. Характеристика душности погоды. При расчете учитывается влияние влажности воздуха и скорости ветра на теплоощущения человека.
Tes - Эффективная температура на солнце - температура, которую ощущает человек, с поправкой на солнечный нагрев. Характеристика знойности погоды. Зависит от высоты солнца над горизонтом, облачности и скорости ветра. Ночью, в пасмурную погоду, а также при ветре 12 м/с и более поправка равна нулю.
P - Атмосферное давление - приведенное к уровню моря атмосферное давление.
Po - Атмосферное давление - измеренное на уровне метеостанции атмосферное давление.
Tmin - Минимальная температура - минимум температуры воздуха на высоте 2 м над землей.
Tmax - Максимальная температура - максимум температуры воздуха на высоте 2 м над землей.
R - Количество осадков - Количество выпавших осадков за период времени, мм. При наведении курсора мыши на число - период времени, за который выпало указанное количество осадков.
R24 - Количество осадков - Количество выпавших осадков за 24 часа, мм.
S - Снежный покров - Высота снежного покрова, см. При наведении курсора мыши на число - состояние снежного покрова и степень покрытия местности в баллах.